Location: ActonStarParty
(42.4766°N, 71.4538°W)
Time: 21:41:49
(UTC-04:00)

ISS - Visible Passes

Search period start: 31 July 2014 00:00
Search period end: 10 August 2014 00:00
Orbit: 411 x 419 km, 51.6° (Epoch: 31 July)

Date Brightness Start Highest point End Pass type
(mag) Time Alt. Az. Time Alt. Az. Time Alt. Az.
31 Jul -0.3 02:09:55 13° NNW 02:11:27 17° N 02:13:45 10° NE visible
31 Jul -1.0 03:46:04 10° NW 03:48:59 27° NNE 03:51:54 10° E visible
01 Aug -0.3 01:22:53 17° N 01:22:53 17° N 01:24:45 10° NE visible
01 Aug -0.6 02:57:18 10° NW 02:59:58 21° NNE 03:02:39 10° ENE visible
01 Aug -3.1 04:33:44 10° NW 04:37:06 78° NNE 04:40:28 10° ESE visible
02 Aug -0.4 02:09:02 13° NNW 02:10:55 19° N 02:13:22 10° NE visible
02 Aug -2.3 03:44:56 10° NW 03:48:13 48° NNE 03:51:29 10° ESE visible
02 Aug -3.5 22:03:54 10° SW 22:07:13 82° SE 22:07:59 50° ENE visible
03 Aug -0.1 01:23:17 14° NE 01:23:17 14° NE 01:24:08 10° NE visible
03 Aug -1.5 02:56:18 11° NW 02:59:16 33° NNE 03:02:22 10° E visible
03 Aug -2.8 04:32:51 10° WNW 04:36:01 39° SW 04:39:10 10° SSE visible
03 Aug -3.1 21:15:13 10° SW 21:18:25 46° SE 21:21:38 10° ENE visible
03 Aug -1.3 22:52:14 10° W 22:55:14 30° NNW 22:57:00 19° NNE visible
04 Aug -0.2 02:12:53 11° ENE 02:12:53 11° ENE 02:13:07 10° ENE visible
04 Aug -3.4 03:46:03 36° WNW 03:47:14 69° SW 03:50:34 10° SE visible
04 Aug -2.0 22:03:03 10° W 22:06:15 42° NNW 22:09:28 10° NE visible
04 Aug -0.4 23:41:13 10° NW 23:43:36 18° N 23:43:47 18° N visible
05 Aug -2.9 21:14:01 10° WSW 21:17:19 67° NNW 21:20:39 10° NE visible
05 Aug -0.6 22:51:56 10° WNW 22:54:30 20° NNW 22:56:54 11° NE visible
06 Aug 0.2 00:29:42 10° NW 00:29:46 10° NW 00:29:46 10° NW visible
06 Aug -0.9 22:02:37 10° WNW 22:05:25 24° NNW 22:08:15 10° NE visible
06 Aug -0.3 23:40:41 10° NW 23:42:38 17° N 23:42:38 17° N visible
07 Aug -1.4 21:13:21 10° W 21:16:23 32° NNW 21:19:26 10° NE visible
07 Aug -0.4 22:51:33 10° NW 22:53:50 17° N 22:55:24 13° NNE visible
08 Aug -2.1 20:24:10 10° WSW 20:27:23 46° NNW 20:30:37 10° NE visible
08 Aug -0.5 22:02:17 10° NW 22:04:42 18° N 22:07:07 10° NE visible
08 Aug -0.2 23:39:44 10° NW 23:40:58 16° NNW 23:40:58 16° NNW visible
09 Aug -0.7 21:12:57 10° WNW 21:15:34 21° NNW 21:18:12 10° NE visible
09 Aug -0.7 22:50:48 10° NW 22:53:10 18° N 22:53:39 17° NNE visible
